Simultaneous Nadir Overpasses (SNOs) Predictions

Prediction of SNOs between METOP-B and NPP Satellite Orbit:

Table of predicted SNOs for the next 14.0 days since TLE Epoch: 11/2/2024
Index Date (METOP-B) Time (METOP-B) Lat,Lon (METOP-B) SZA (METOP-B ) Date (NPP) Time (NPP) Lat,Lon (NPP) SZA (NPP ) Distance(km) Time Diff (sec)
1 11/14/2024 07:56:45 74.16, 52.00 92.51 11/14/2024 07:55:36 74.16, 49.72 92.58 69.31 69
2 11/14/2024 08:47:28 -74.10,-140.80 87.54 11/14/2024 08:46:18 -74.07,-142.74 87.51 59.15 70
3 11/14/2024 09:38:12 73.87, 25.96 92.25 11/14/2024 09:37:00 73.87, 25.05 92.29 28.16 72
4 11/14/2024 10:28:56 -73.77,-166.95 87.84 11/14/2024 10:27:42 -73.78,-167.41 87.80 14.56 74
5 11/14/2024 11:19:37 73.68, 0.18 92.09 11/14/2024 11:18:26 73.68, 0.13 92.10 1.59 71
6 11/14/2024 12:10:19 -73.68, 167.50 87.91 11/14/2024 12:09:10 -73.69, 167.43 87.88 2.90 69
7 11/14/2024 13:00:59 73.64, -25.25 92.07 11/14/2024 12:59:55 73.64, -25.15 92.08 3.38 64
8 11/14/2024 13:51:41 -73.64, 142.07 87.93 11/14/2024 13:50:39 -73.65, 142.15 87.91 2.91 62
9 11/14/2024 14:42:20 73.65, -50.57 92.10 11/14/2024 14:41:25 73.65, -50.54 92.11 1.00 55
10 11/14/2024 15:33:02 -73.65, 116.75 87.90 11/14/2024 15:32:09 -73.66, 116.76 87.88 1.39 53
11 11/14/2024 16:23:41 73.66, -75.89 92.12 11/14/2024 16:22:55 73.66, -75.93 92.13 1.43 46
12 11/14/2024 17:14:23 -73.66, 91.44 87.87 11/14/2024 17:13:39 -73.67, 91.36 87.85 2.61 44
13 11/14/2024 18:05:03 73.62,-101.32 92.10 11/14/2024 18:04:24 73.62,-101.21 92.11 3.44 39
14 11/14/2024 18:55:45 -73.61, 66.00 87.89 11/14/2024 18:55:08 -73.63, 66.09 87.88 2.78 37
15 11/14/2024 19:46:24 73.62,-126.64 92.13 11/14/2024 19:45:54 73.62,-126.60 92.13 1.05 30
16 11/14/2024 20:37:06 -73.62, 40.69 87.87 11/14/2024 20:36:38 -73.63, 40.69 87.85 1.01 28
17 11/14/2024 21:27:45 73.63,-151.95 92.16 11/14/2024 21:27:24 73.63,-152.00 92.16 1.36 21
18 11/14/2024 22:18:27 -73.63, 15.37 87.84 11/14/2024 22:18:08 -73.64, 15.30 87.83 2.39 19
19 11/14/2024 23:09:07 73.59,-177.39 92.14 11/14/2024 23:08:53 73.59,-177.27 92.13 3.52 14
20 11/14/2024 23:59:49 -73.59, -10.06 87.86 11/14/2024 23:59:37 -73.60, -9.98 87.85 2.71 12
21 11/15/2024 00:50:28 73.60, 157.30 92.16 11/15/2024 00:50:23 73.60, 157.33 92.16 1.20 5
22 11/15/2024 01:41:10 -73.60, -35.38 87.83 11/15/2024 01:41:07 -73.61, -35.37 87.83 0.69 3
23 11/15/2024 02:31:49 73.61, 131.98 92.19 11/15/2024 02:31:53 73.61, 131.94 92.19 1.37 4
24 11/15/2024 03:22:31 -73.61, -60.70 87.81 11/15/2024 03:22:37 -73.62, -60.77 87.80 2.23 6
25 11/15/2024 04:13:11 73.57, 106.55 92.17 11/15/2024 04:13:22 73.57, 106.66 92.16 3.63 11
26 11/15/2024 05:03:53 -73.57, -86.13 87.83 11/15/2024 05:04:06 -73.58, -86.04 87.83 2.70 13
27 11/15/2024 05:54:32 73.58, 81.23 92.20 11/15/2024 05:54:52 73.57, 81.27 92.19 1.38 20
28 11/15/2024 06:45:14 -73.58,-111.45 87.80 11/15/2024 06:45:36 -73.58,-111.44 87.80 0.45 22
29 11/15/2024 07:35:53 73.59, 55.91 92.22 11/15/2024 07:36:22 73.58, 55.87 92.21 1.43 29
30 11/15/2024 08:26:35 -73.59,-136.76 87.77 11/15/2024 08:27:06 -73.59,-136.83 87.77 2.12 31
31 11/15/2024 09:17:14 73.60, 30.59 92.25 11/15/2024 09:17:52 73.59, 30.48 92.24 3.68 38
32 11/15/2024 10:07:57 -73.55,-162.19 87.79 11/15/2024 10:08:35 -73.55,-162.11 87.80 2.72 38
33 11/15/2024 10:58:36 73.56, 5.16 92.23 11/15/2024 10:59:21 73.55, 5.20 92.22 1.56 45
34 11/15/2024 11:49:18 -73.56, 172.49 87.77 11/15/2024 11:50:05 -73.56, 172.50 87.77 0.34 47
35 11/15/2024 12:39:57 73.57, -20.16 92.26 11/15/2024 12:40:51 73.56, -20.19 92.24 1.51 54
36 11/15/2024 13:30:39 -73.57, 147.17 87.74 11/15/2024 13:31:35 -73.57, 147.10 87.74 2.05 56
37 11/15/2024 14:21:18 73.58, -45.47 92.28 11/15/2024 14:22:21 73.57, -45.59 92.27 3.67 63
38 11/15/2024 15:12:01 -73.53, 121.74 87.76 11/15/2024 15:13:04 -73.53, 121.83 87.77 2.76 63
39 11/15/2024 16:02:40 73.54, -70.91 92.26 11/15/2024 16:03:50 73.53, -70.86 92.24 1.72 70
40 11/15/2024 16:53:22 -73.54, 96.42 87.73 11/15/2024 16:54:34 -73.53, 96.43 87.74 0.40 72
41 11/15/2024 17:44:04 73.34, -96.67 92.10 11/15/2024 17:45:16 73.38, -95.92 92.11 24.55 72
42 11/15/2024 18:34:47 -73.29, 70.54 87.94 11/15/2024 18:35:59 -73.34, 71.49 87.93 30.77 72
43 11/15/2024 19:25:32 73.00,-122.76 91.80 11/15/2024 19:26:40 73.09,-120.64 91.82 69.35 68
44 11/15/2024 20:16:15 -72.95, 44.47 88.24 11/15/2024 20:17:22 -73.00, 46.87 88.27 78.37 67



Historial Predications of SNOs between METOP-B and NPP
